Location: *
(60.1759°S, 155.0663°W)
Time: 05:39:47
(UTC+00:00)

Sich 1 - Pass Details

Date: 17 September 2019
Orbit: 594 x 626 km, 82.5° (Epoch: 20 October)

Event Time Altitude Azimuth Distance (km) Brightness Sun altitude
Exits shadow 12:30:58 37° 75° (ENE) 950 4.1 -26.5°
Maximum altitude 12:31:20 38° 88° (E) 938 4.2 -26.5°
Drops below altitude 10° 12:35:23 10° 155° (SSE) 1,979 6.6 -26.1°
Sets 12:37:43 0° 162° (SSE) 2,892 7.6 -25.9°
